User: anonymous   Login
Location: Bílinka
(49.3579°N, 14.3767°E)
Time: 20:57:33
(UTC+00:00)
Language:

FENGYUN 1C DEB - Orbit

View from above orbital plane
View from above orbital plane
View from above satellite
View from above satellite

Ground track
Ground track

The orbit data is extracted from the following two-line orbital elements,

1 30235U 99025WU  24062.01774407  .00000784  00000-0  44390-3 0  9994
2 30235  98.8051  91.9158 0156207 273.7793 151.9276 14.07050257877361
Epoch (UTC): 02 March 2024 00:25:33
Eccentricity: 0.0156207
inclination: 98.8051°
perigee height: 756 km
apogee height: 982 km
right ascension of ascending node: 91.9158°
argument of perigee: 273.7793°
revolutions per day: 14.07050257
mean anomaly at epoch: 151.9276°
orbit number at epoch: 87736

The dashed part of the orbit path shows where the satellite is in the earth's shadow,  

DLR